Weather History for KTQE - December, 2014

Change the Weather History Date:

Monday, December 29, 2014

  Actual Average Record
Temperature  
Mean Temperature 13 °F -  
Max Temperature 23 °F 32 °F 61 °F (1984)
Min Temperature 3 °F 13 °F -7 °F (1990)
Degree Days  
Heating Degree Days 52    
Moisture  
Dew Point 12 °F    
Average Humidity 79    
Maximum Humidity 86    
Minimum Humidity 68    
Precipitation  
Precipitation 0.00 in - - ()
Sea Level Pressure  
Sea Level Pressure 30.49 in    
Wind  
Wind Speed 15 mph (North)    
Max Wind Speed 25 mph    
Max Gust Speed -    
Visibility 6 miles    
Events Snow    
Averages and records for this station are not official NWS values.
T = Trace of Precipitation, MM = Missing Value Source: NWS Daily Summary

Daily Weather History Graph

Daily Weather History Graph

Search for Another Location

Airport or City:

Trip Planner

Search our weather history database for the weather conditions in past years. The results will help you decide how hot, cold, wet, or windy it might be!

Date:

Astronomy

Dec. 29, 2014 Rise Set
Actual Time 7:51 AM CST 5:02 PM CST
Civil Twilight 7:20 AM CST 5:33 PM CST
Nautical Twilight 6:44 AM CST 6:08 PM CST
Astronomical Twilight 6:11 AM CST 6:42 PM CST
Moon 12:42 PM CST (12/29) 1:05 AM CST (12/29)
Length of Visible Light 10h 13m
Length of Day
9h 10m
First Quarter, 61% of the Moon is Illuminated
Dec 29
First Quarter
Jan 4
Full
Jan 13
Last Quarter
Jan 20
New
Jan 26
First Quarter

Hourly Weather History & Observations

Time (CST) Temp. Windchill Dew Point Humidity Pressure Visibility Wind Dir Wind Speed Gust Speed Precip Events Conditions
12:54 AM 19.0 °F 8.2 °F 15.1 °F 85% 30.29 in 10.0 mi North 9.2 mph - N/A   Clear
1:36 AM 19.9 °F 7.9 °F 16.0 °F 85% 30.26 in 10.0 mi North 11.5 mph - N/A   Mostly Cloudy
1:54 AM 19.9 °F 7.9 °F 16.0 °F 85% 30.30 in 10.0 mi North 11.5 mph - N/A   Overcast
2:54 AM 19.9 °F 7.3 °F 16.0 °F 85% 30.32 in 10.0 mi North 12.7 mph - N/A   Overcast
3:54 AM 19.9 °F 6.7 °F 16.0 °F 85% 30.32 in 10.0 mi North 13.8 mph - N/A   Overcast
4:54 AM 21.0 °F 9.9 °F 16.0 °F 81% 30.34 in 9.0 mi North 10.4 mph - N/A   Overcast
5:54 AM 21.9 °F 9.2 °F 18.0 °F 85% 30.35 in 9.0 mi NNE 13.8 mph - N/A   Overcast
6:34 AM 23.0 °F 10.1 °F 18.0 °F 81% 30.33 in 6.0 mi NNE 15.0 mph - 0.00 in Snow Light Snow
6:54 AM 21.9 °F 7.3 °F 18.0 °F 85% 30.39 in 5.0 mi NNE 18.4 mph - 0.00 in   Overcast
7:12 AM 21.9 °F 8.7 °F 17.1 °F 82% 30.36 in 6.0 mi NNE 15.0 mph - 0.00 in   Overcast
7:54 AM 21.9 °F 7.8 °F 17.1 °F 82% 30.41 in 2.5 mi NNE 17.3 mph - 0.00 in Snow Light Snow
8:10 AM 21.9 °F 8.2 °F 17.1 °F 82% 30.38 in 4.0 mi NNE 16.1 mph - 0.00 in   Overcast
8:31 AM 21.9 °F 8.7 °F 17.1 °F 82% 30.40 in 7.0 mi NNE 15.0 mph - 0.00 in   Overcast
8:50 AM 21.2 °F 7.3 °F 17.6 °F 86% 30.41 in 4.0 mi NNE 16.1 mph - 0.00 in   Haze
8:54 AM 21.9 °F 9.2 °F 17.1 °F 82% 30.45 in 4.0 mi NNE 13.8 mph - 0.00 in   Haze
9:17 AM 21.9 °F 9.2 °F 17.1 °F 82% 30.43 in 1.8 mi NNE 13.8 mph - 0.00 in Snow Light Snow
9:37 AM 21.0 °F 6.2 °F 17.1 °F 85% 30.44 in 0.8 mi NNE 18.4 mph - 0.00 in Snow Light Snow
9:45 AM 21.0 °F 6.6 °F 17.1 °F 85% 30.44 in 0.8 mi North 17.3 mph - 0.00 in Snow Light Snow
9:54 AM 21.0 °F 6.6 °F 17.1 °F 85% 30.49 in 1.0 mi North 17.3 mph - 0.00 in Snow Light Snow
10:21 AM 21.0 °F 6.6 °F 16.0 °F 81% 30.47 in 1.8 mi NNE 17.3 mph - 0.00 in Snow Light Snow
10:54 AM 21.0 °F 5.0 °F 16.0 °F 81% 30.52 in 2.0 mi NNE 21.9 mph - 0.00 in Snow Light Snow
11:33 AM 19.0 °F 2.7 °F 15.1 °F 85% 30.48 in 1.8 mi North 20.7 mph - 0.00 in Snow Light Snow
11:41 AM 19.0 °F 2.0 °F 14.0 °F 81% 30.47 in 2.0 mi North 23.0 mph - 0.00 in   Overcast
11:54 AM 19.9 °F 3.9 °F 15.1 °F 81% 30.52 in 2.5 mi North 20.7 mph - 0.00 in   Overcast
12:04 PM 19.9 °F 4.3 °F 14.0 °F 78% 30.48 in 3.0 mi North 19.6 mph - 0.00 in   Overcast
12:54 PM 19.9 °F 3.9 °F 10.9 °F 68% 30.51 in 8.0 mi North 20.7 mph - 0.00 in   Overcast
1:54 PM 18.0 °F 1.3 °F 10.0 °F 71% 30.52 in 10.0 mi North 20.7 mph - 0.00 in   Overcast
2:54 PM 16.0 °F -2.8 °F 7.0 °F 68% 30.54 in 10.0 mi North 25.3 mph - 0.00 in   Mostly Cloudy
3:54 PM 12.9 °F -5.7 °F 6.1 °F 74% 30.58 in 10.0 mi North 21.9 mph - N/A   Mostly Cloudy
4:54 PM 10.9 °F -7.0 °F 3.0 °F 70% 30.61 in 10.0 mi North 18.4 mph - N/A   Scattered Clouds
5:54 PM 9.0 °F -8.5 °F 1.0 °F 70% 30.65 in 10.0 mi North 16.1 mph - N/A   Clear
6:54 PM 7.0 °F -11.6 °F -0.0 °F 73% 30.68 in 10.0 mi North 17.3 mph - N/A   Partly Cloudy
7:54 PM 6.1 °F -12.8 °F -0.9 °F 73% 30.71 in 10.0 mi North 17.3 mph - N/A   Clear
8:54 PM 5.0 °F -14.7 °F -2.0 °F 73% 30.76 in 10.0 mi North 18.4 mph - N/A   Clear
9:54 PM 3.9 °F -15.6 °F -2.9 °F 73% 30.77 in 10.0 mi North 17.3 mph - N/A   Clear
10:54 PM 3.9 °F -15.6 °F -4.0 °F 70% 30.80 in 10.0 mi North 17.3 mph - N/A   Clear
11:54 PM 3.0 °F -17.3 °F -5.1 °F 69% 30.82 in 10.0 mi North 18.4 mph - N/A   Clear